Aérodrome :
LOGIN :

S'inscrire | Disclaimer

   EN    FR    IT 

 










Légende :    VFR   VFR Marginal   IFR   IFR Intensif   IFR Très Intensif
Visi : 
Plafond : 
>= 8 km
>= 3000ft
5 à 8 km
1000 à 3000 ft
1500m à 5 km
500 à 1000 ft
800 à 1500m
200 à 500 ft
< 800m
< 200 ft
Symboles :   Orages  Brouillard  Fortes neiges  Fortes précipitations  Vent > 20 kt
SIGMETs :   Divers  Orages  Givrage  Turbulence  Onde Orograph.  Cendres Volcan.







- Altitude de l'aérodrome : 102 ft
- Code IATA : KEL


EDHK - Holtenau

DERNIER METAR :
  • 241420Z 28012KT 9999 BKN025 17/11 Q1018

METARs EXPIRÉS :
  • 241350Z 29009KT 9999 BKN020 17/11 Q1018
  • 241320Z 29009KT 270V340 9999 BKN020 16/12 Q1018
  • 241250Z 30010KT 270V360 9999 BKN019 16/11 Q1018
  • 241220Z 31009KT 280V340 9999 BKN017 15/12 Q1018
  • 241150Z 31010KT 9999 -SHRA BKN019 15/12 Q1018

TAF TAF EDHK
Valide du 24 à 15h jusqu'au 24 à 18h UTC


241400Z 2415/2418 28007KT 9999 BKN030
Pas de NOTAMs connus pour ce terrain.



MET'MAP, la Météo Aéronautique d'un coup d'oeil ! - Copyright ORBIFLY Décembre 2007 - Disclaimer

ORBIFLY MET'MAP TEAM :

Programmation & Développement : Alexandra Zaïnal
Conception & Développement : Baudouin d'Aumeries
Co-Programmation & Développement : Marc-Olivier Méhu
Soutien technique & logistique : Manuel Goepfert

Contact : metmap@orbifly.com




SOURCES & CREDITS :

   NOAA